RH
66 68 69 69 69 70 70 70 70 68 67 68 68 70 70 70 68 64 61 61 60 58 56 54 53 53 52 51 50 49 49 48 45 44 45 46 46 47 49 50 50 50 50 52 52 50 47 44 41 40 40 40 39 38 38 38 38 37 37 36 36 36 35 35 37 38 38 36 35 36 36 37 37 37 36 35 35 37 39 40 41 42 41 40 40
65 68 71 71 68 69 70 71 71 69 68 68 69 71 70 69 69 66 61 59 58 58 58 58 56 54 53 52 51 51 51 49 46 44 44 44 44 46 49 50 49 50 50 50 50 49 47 43 40 39 40 39 39 39 38 39 39 38 38 38 37 37 37 39 42 43 43 41 39 38 38 38 39 39 38 38 36 35 35 38 40 40 41 42 41
64 65 71 71 68 69 71 72 70 69 69 68 69 70 70 71 73 71 65 62 61 60 60 60 58 57 57 56 55 56 56 54 52 49 46 44 43 44 46 48 49 49 48 47 47 47 45 42 41 40 39 38 38 38 39 39 38 39 39 39 39 40 42 45 48 49 47 44 44 43 43 41 41 42 41 40 39 37 35 35 37 37 38 40 42
68 65 69 72 71 70 71 72 71 71 69 69 68 68 70 72 73 73 71 67 66 64 63 63 62 60 60 61 62 61 60 58 56 54 51 46 44 43 44 46 49 48 45 45 45 44 43 41 41 40 39 39 39 39 40 40 40 40 41 42 44 46 48 50 51 52 49 46 48 49 49 46 43 45 44 43 41 40 38 36 35 34 34 36 38
74 70 71 72 73 71 70 72 72 72 70 69 70 70 71 71 72 72 73 70 68 67 67 68 65 62 60 62 64 64 62 59 57 55 53 49 46 44 44 46 48 46 43 43 44 44 41 41 41 40 39 39 39 40 41 42 44 44 45 47 48 50 50 52 52 50 48 47 50 53 53 50 48 48 46 45 43 41 40 38 37 34 34 34 35
76 75 75 75 71 66 66 70 72 72 72 72 72 72 72 72 72 73 73 73 73 71 70 69 67 65 62 63 63 64 64 62 58 54 53 50 47 46 46 47 47 44 42 42 43 43 41 40 41 40 39 39 39 41 42 44 46 47 47 49 50 51 51 51 51 49 48 48 52 55 55 54 54 53 50 49 46 42 41 41 40 38 36 35 35
75 76 79 78 72 64 62 67 70 72 73 74 74 73 74 73 74 74 73 74 76 74 71 69 67 66 66 65 63 62 64 64 59 54 54 51 48 47 47 46 46 43 41 41 42 42 41 41 42 40 39 39 40 41 43 44 45 47 48 51 53 53 53 52 51 50 49 51 53 56 58 58 57 57 56 55 52 46 42 42 42 41 40 40 39
72 73 76 76 73 67 65 67 69 71 70 71 73 74 75 73 74 75 73 73 75 75 73 71 68 67 67 67 65 64 64 64 60 56 56 53 50 48 47 46 45 44 41 42 43 44 43 43 43 41 40 40 40 41 44 45 47 48 50 52 53 54 54 53 53 52 51 52 53 55 58 59 59 59 60 61 58 52 45 44 42 42 43 44 46
71 73 73 74 73 70 70 71 71 70 69 70 71 73 74 73 73 74 73 72 74 74 73 72 70 68 67 66 67 66 65 64 61 62 61 56 53 52 50 48 46 44 44 45 45 45 46 46 45 41 39 40 42 44 45 46 48 49 50 51 52 53 53 54 54 54 55 54 53 54 56 59 62 60 61 63 63 58 51 51 47 43 43 45 50
71 73 72 71 72 71 73 74 74 73 71 71 70 72 73 73 73 73 73 72 74 75 72 71 70 69 67 66 67 67 67 66 66 66 63 57 55 55 55 52 50 48 47 47 47 47 47 47 45 41 40 41 43 45 46 48 50 51 51 51 52 52 52 54 53 56 59 57 54 53 54 57 64 61 59 63 65 62 57 57 54 47 42 43 48
72 71 71 71 71 72 73 74 75 75 74 72 72 75 75 74 74 72 74 74 75 75 72 70 68 67 66 66 66 67 67 68 69 64 58 56 58 58 57 56 54 51 50 50 49 48 48 49 45 42 43 44 46 47 48 49 50 50 50 49 50 50 50 50 52 59 58 59 57 55 55 53 60 60 57 60 62 63 59 57 55 52 46 42 43
73 69 69 71 73 74 74 74 74 75 74 73 73 77 77 76 76 75 75 74 75 75 71 68 65 64 64 65 65 66 68 69 67 62 59 61 62 62 59 58 57 56 53 52 50 48 49 50 44 42 46 46 46 46 47 47 47 48 50 51 51 51 52 50 54 61 59 59 58 58 58 56 60 57 52 54 55 59 60 58 54 52 52 46 41
71 70 70 72 76 76 75 75 73 73 74 74 74 75 76 77 79 78 76 74 75 74 71 67 64 64 63 63 65 66 67 65 61 60 63 65 66 63 61 60 59 58 56 54 52 50 51 48 43 44 46 45 45 46 48 50 51 54 55 56 57 56 57 56 57 60 60 61 60 60 61 59 61 55 50 50 50 53 57 59 56 53 53 51 47
67 70 73 75 78 77 77 76 75 76 73 74 74 72 74 77 79 78 75 74 75 73 69 67 65 65 64 65 65 63 61 58 57 60 64 63 63 61 60 60 58 57 55 53 52 51 49 45 43 43 43 43 47 50 52 55 57 59 60 61 63 62 62 62 60 60 61 62 61 62 64 61 58 53 50 49 47 49 52 56 57 56 53 53 51
66 70 74 75 76 76 78 77 77 80 77 75 72 71 72 76 80 80 76 74 74 70 65 65 63 61 60 63 62 58 56 56 59 61 61 59 58 57 55 55 53 52 51 50 50 47 42 41 43 43 43 44 50 54 57 59 61 63 66 69 71 69 67 66 64 63 63 64 61 61 66 65 58 55 54 51 48 45 47 51 51 53 54 53 53
66 67 72 74 74 74 75 77 77 78 78 77 72 70 73 77 81 84 84 80 77 69 63 61 61 61 59 61 64 61 58 58 59 58 56 53 53 53 51 51 51 50 48 46 46 41 36 39 43 43 43 45 51 57 60 62 65 68 71 74 76 76 74 70 70 68 66 66 64 61 65 67 61 59 61 57 53 47 43 44 43 45 48 52 53
66 66 71 74 74 73 74 76 75 74 75 75 73 72 73 75 78 83 86 85 81 73 69 64 62 67 65 62 65 62 58 57 56 56 53 51 53 54 50 49 48 45 44 40 37 35 36 37 38 41 43 47 56 60 62 64 67 69 72 74 75 77 76 74 76 74 70 68 67 65 66 69 63 62 64 62 59 55 46 40 38 38 40 46 51
68 70 71 72 72 71 73 76 76 77 76 73 74 74 71 71 73 76 79 84 82 76 73 67 62 65 63 60 59 57 56 55 54 54 53 52 52 50 47 44 41 38 35 32 33 34 33 31 36 45 49 55 61 63 64 66 68 69 71 73 74 75 75 75 77 78 75 71 69 69 71 70 64 63 65 65 63 60 53 45 38 33 33 38 44
70 74 73 73 71 69 71 75 76 77 75 73 75 74 71 70 70 70 71 75 74 67 62 58 57 58 56 56 53 52 53 53 52 50 50 48 45 43 40 37 33 30 29 29 32 33 30 33 46 58 58 60 63 65 66 68 69 71 72 74 74 74 74 74 78 80 78 73 71 72 73 72 67 64 65 65 64 62 58 50 42 35 29 30 36
68 73 76 76 73 71 72 76 73 72 72 73 75 73 71 69 67 65 64 66 64 58 53 50 52 53 52 51 48 48 51 52 49 46 44 41 38 35 33 29 27 26 26 28 32 36 39 42 53 62 63 62 63 66 67 70 72 73 74 75 75 74 75 76 78 80 77 73 73 73 73 73 71 68 65 66 64 63 61 56 50 43 35 29 30
68 72 74 75 76 76 76 78 74 72 72 73 75 71 68 65 63 62 60 60 59 53 50 49 50 49 46 44 42 45 49 48 44 41 38 35 33 30 28 26 25 24 25 29 35 44 49 48 49 56 65 65 63 67 69 71 74 75 76 75 76 77 76 75 76 77 74 73 74 73 72 72 73 72 71 71 69 66 64 62 58 53 45 36 30
72 74 75 75 77 77 76 77 74 72 71 70 71 67 62 60 58 58 58 56 52 47 45 45 47 45 40 39 39 41 42 39 37 38 36 34 33 29 27 26 25 26 29 34 40 49 55 55 52 54 61 66 65 67 70 73 76 77 77 76 76 76 76 75 76 77 74 73 73 73 73 72 72 75 74 75 75 73 71 68 65 60 54 45 37
75 77 78 77 76 75 75 76 73 69 68 68 67 62 57 56 55 55 55 51 47 44 41 40 42 38 34 36 37 37 37 36 35 38 38 36 35 30 27 27 27 28 32 38 44 50 55 57 58 58 58 62 66 69 72 75 75 76 77 77 76 75 75 75 75 75 74 73 69 68 72 72 73 75 75 77 77 76 78 74 70 68 63 55 46
75 77 78 77 75 73 75 76 71 66 67 67 66 61 56 55 57 55 51 48 47 44 39 37 36 32 32 34 36 35 36 37 36 37 38 36 33 29 27 29 30 32 38 45 48 50 52 54 58 62 60 60 66 68 72 74 73 74 76 77 76 75 75 74 74 73 72 72 67 67 69 68 70 72 73 77 78 77 79 77 74 74 71 63 55
71 73 74 71 70 70 74 73 67 63 64 64 64 61 55 56 58 55 47 42 42 41 38 38 34 32 35 36 37 37 37 37 36 36 36 36 31 29 32 35 37 39 43 49 51 51 53 57 59 61 63 65 69 67 68 72 72 72 74 76 76 74 74 74 75 74 72 73 70 68 68 68 67 68 69 73 76 76 77 77 76 77 75 69 62
69 70 69 66 65 67 71 69 64 62 62 63 63 58 53 54 54 52 49 42 40 42 41 39 35 35 38 39 39 38 37 37 37 37 36 36 34 35 40 40 40 41 43 47 50 50 52 56 58 57 60 65 68 66 65 68 73 74 72 74 76 74 74 74 74 74 73 74 71 69 69 70 69 67 67 68 72 75 75 76 77 78 76 70 64
68 68 68 64 62 65 67 65 64 64 62 62 61 57 53 53 50 50 54 50 44 42 42 39 36 37 39 40 39 38 37 37 39 38 36 37 39 40 42 40 39 41 43 47 49 49 51 52 53 52 55 59 63 67 67 66 70 74 74 74 74 73 72 73 75 75 75 76 73 70 69 69 69 69 67 66 69 72 75 75 76 78 78 72 66
68 68 67 63 61 63 63 64 66 65 62 61 60 57 54 54 51 49 53 51 46 46 45 41 38 38 39 38 38 39 37 38 39 38 38 40 40 39 41 41 43 46 45 48 51 52 52 52 50 50 52 54 58 66 70 69 69 71 72 72 74 74 74 75 77 77 79 79 75 71 69 70 70 71 70 68 67 69 73 75 76 78 77 75 71
67 68 66 63 61 63 62 64 65 62 61 62 61 57 50 50 50 50 51 49 50 52 46 41 41 40 40 37 38 42 41 39 39 40 42 41 38 37 41 44 45 47 45 47 51 53 52 51 50 49 50 51 55 62 66 68 68 68 68 71 73 75 76 76 76 78 80 80 78 75 73 72 72 72 73 71 69 69 69 72 76 78 77 76 75
64 67 66 64 62 63 62 62 63 59 60 62 62 57 47 44 49 52 51 48 51 54 47 43 44 43 42 39 40 44 44 42 39 40 41 38 35 35 40 43 44 45 46 48 50 50 51 49 49 49 48 49 52 58 62 61 63 65 66 72 74 73 75 76 76 78 78 80 81 80 75 72 72 72 72 72 71 69 67 70 76 77 76 76 76
62 64 65 64 62 62 60 59 59 57 59 61 61 57 48 42 48 52 50 48 49 49 48 48 48 47 44 41 42 43 43 44 41 39 41 38 35 35 38 42 45 46 47 48 48 49 49 48 49 48 47 48 51 56 59 58 60 64 67 72 74 73 73 74 76 78 78 80 81 80 75 72 72 71 71 71 71 69 68 71 75 75 73 72 73
61 63 65 64 62 61 57 56 55 54 57 60 58 56 50 44 45 49 50 49 47 46 49 50 47 48 45 42 44 43 42 43 41 40 41 38 37 38 39 42 44 46 47 47 48 48 47 47 47 47 47 47 50 55 56 57 60 64 69 72 71 72 73 73 74 77 79 79 79 78 76 75 73 71 71 70 70 70 69 70 72 71 69 67 68
61 63 65 64 62 61 56 53 53 51 53 57 56 54 52 50 48 49 49 49 48 45 48 49 43 42 41 42 45 43 42 43 41 40 39 37 37 37 39 43 44 45 47 48 48 47 46 46 46 46 47 47 50 53 55 58 59 62 70 71 70 71 72 73 76 78 79 80 80 80 78 76 73 71 71 70 70 71 67 66 67 66 65 65 66
59 62 63 64 64 62 57 53 51 50 50 53 55 54 55 56 55 54 50 47 47 45 47 48 42 39 38 40 45 44 44 45 43 41 39 39 39 36 38 43 44 44 46 49 48 46 44 45 45 45 46 47 49 52 55 58 58 63 69 70 71 70 70 74 78 79 80 81 81 80 77 75 72 71 71 71 72 69 64 63 63 62 64 65 65
56 59 61 63 64 63 58 51 49 48 49 50 52 54 56 58 57 57 52 47 46 44 46 48 44 44 42 40 44 46 46 46 45 43 40 41 41 38 39 42 42 42 45 49 47 45 44 43 45 45 44 46 47 51 55 56 57 62 66 70 70 69 70 74 77 78 81 81 79 77 74 73 72 72 71 71 73 69 62 62 62 61 63 65 63
55 56 58 60 63 63 57 51 47 47 47 45 47 50 53 56 56 57 53 50 48 45 45 48 48 48 47 45 45 45 48 47 46 46 43 42 42 41 42 42 39 40 47 50 47 46 46 44 45 45 44 45 47 51 53 54 57 60 66 71 69 69 72 75 76 78 80 77 75 74 74 72 71 71 71 72 75 74 66 62 62 61 62 64 63
57 55 56 58 61 60 56 53 49 47 46 43 40 43 46 49 53 55 54 51 50 49 47 47 49 48 48 50 48 46 48 48 46 46 45 45 45 44 44 45 42 44 50 50 48 48 47 46 45 44 45 48 48 49 50 52 56 59 65 69 68 70 72 73 74 76 76 74 72 72 73 72 72 70 70 74 76 76 72 64 61 59 58 61 62
57 55 55 57 58 57 55 54 53 50 47 44 41 43 43 44 48 53 54 52 50 53 51 46 47 47 48 50 47 47 48 47 47 46 46 47 47 46 47 47 46 48 50 48 49 50 48 46 44 44 47 49 49 48 50 52 54 57 62 66 69 70 68 69 72 73 74 71 70 71 70 71 71 70 71 74 74 73 73 68 63 61 58 59 60
57 55 56 58 56 56 57 54 55 55 51 48 47 47 46 43 45 52 55 53 53 54 51 47 48 48 49 48 45 46 47 46 47 47 47 48 48 49 49 47 46 49 50 48 50 50 49 46 45 46 47 48 49 47 49 51 51 55 61 64 70 70 66 69 72 73 74 71 70 70 72 71 69 69 70 72 72 70 70 68 68 69 66 60 57
59 56 56 59 58 58 59 55 53 55 52 51 52 52 53 49 47 52 54 53 55 54 49 50 55 53 52 51 45 44 46 45 46 47 48 50 51 52 51 48 48 51 51 49 50 51 50 48 47 47 46 48 49 49 51 51 50 57 62 64 69 70 68 71 74 73 72 71 69 69 70 69 66 67 69 69 70 68 65 66 69 73 72 65 57
61 58 55 58 58 59 60 55 52 53 52 52 54 56 60 57 53 54 54 53 54 54 51 53 58 58 57 54 48 47 47 46 47 48 49 51 52 52 52 50 50 52 51 50 51 51 48 47 48 46 47 50 49 50 53 50 50 58 62 64 69 70 67 70 73 73 73 71 70 67 66 67 66 66 66 67 66 65 66 66 68 72 72 68 62
63 59 57 57 57 59 59 57 54 53 52 52 53 55 60 60 58 57 56 55 54 54 54 55 57 59 59 55 52 51 50 50 50 49 50 51 52 54 54 52 51 50 49 48 49 47 45 47 50 49 49 51 49 50 52 49 52 59 61 63 67 68 68 70 72 74 74 71 71 70 68 69 67 65 67 69 67 67 70 67 66 69 69 66 62
64 62 61 61 60 60 60 60 60 58 55 54 53 54 58 59 60 61 60 59 58 57 56 56 57 59 61 58 55 54 53 53 53 52 52 53 55 57 57 56 52 49 47 46 47 48 48 51 52 50 51 51 49 51 53 49 52 58 60 64 66 66 68 71 73 75 73 70 70 70 69 68 65 64 68 71 70 70 71 68 66 64 63 62 59
68 66 65 67 65 63 62 63 64 63 60 58 56 56 57 57 59 61 62 62 62 62 60 59 60 60 62 62 58 55 55 57 57 57 59 60 58 57 57 58 56 53 51 49 49 50 52 53 53 52 53 52 50 53 52 49 53 57 59 61 64 66 66 68 72 75 72 70 71 69 67 65 64 64 65 66 68 69 69 69 67 62 58 59 57
70 70 68 69 70 67 66 65 65 66 65 63 61 59 58 57 58 59 60 60 61 63 63 62 62 62 62 63 62 59 56 57 60 61 62 64 61 58 58 59 59 58 56 55 55 55 55 55 55 54 54 53 52 52 51 51 55 58 57 58 62 67 68 68 71 73 72 70 72 71 68 65 63 63 65 65 65 67 69 69 68 63 58 58 54
69 71 69 69 71 70 69 68 68 67 67 67 67 64 61 60 59 58 59 60 61 64 66 66 65 64 63 62 62 61 58 56 58 59 62 64 64 61 59 60 62 62 60 60 60 60 59 58 56 55 53 53 53 52 50 52 57 60 59 57 60 64 68 69 71 73 72 69 70 69 69 68 66 66 66 65 64 66 67 66 67 63 60 59 54
69 71 70 70 72 71 69 70 70 70 68 67 68 67 66 64 60 59 61 63 64 66 67 67 68 67 67 65 63 63 61 58 58 59 59 61 61 61 61 62 65 66 65 64 63 64 63 59 57 56 55 55 54 52 50 50 54 60 59 56 56 58 62 66 69 72 73 71 70 69 69 69 68 68 66 62 62 64 63 63 64 62 59 57 52
70 71 73 75 74 71 69 70 72 73 72 71 71 70 70 68 64 63 65 65 66 68 67 65 68 69 69 69 67 66 64 61 60 60 60 59 59 60 62 63 65 67 66 67 66 65 64 61 59 57 55 54 53 52 50 48 50 57 58 56 55 56 61 64 65 68 72 72 71 72 70 67 67 69 67 61 60 61 62 61 62 61 60 59 55
72 73 75 74 70 69 70 72 72 74 74 74 74 73 73 72 70 68 68 68 68 69 69 67 67 67 66 67 68 67 67 64 60 60 60 60 61 62 62 63 64 65 65 65 64 64 64 62 60 57 54 55 55 53 51 49 48 53 58 58 57 57 62 64 64 67 71 71 71 71 69 67 67 69 67 62 60 60 60 59 59 61 62 61 61
73 73 73 72 69 69 72 74 73 73 74 76 76 75 75 74 75 73 71 70 69 68 69 69 66 65 66 66 66 65 66 66 63 62 62 62 63 64 63 63 64 64 64 64 64 64 65 63 60 59 57 58 59 56 53 51 49 52 57 59 57 57 59 63 65 69 71 71 70 69 68 67 67 69 68 63 61 61 62 59 57 58 58 58 62
76 74 70 73 74 73 75 76 76 76 76 77 79 77 77 77 78 77 75 74 71 67 66 67 66 66 67 68 69 67 67 67 66 65 65 66 66 66 66 64 63 63 64 65 64 64 64 63 61 60 59 56 57 57 54 51 51 53 56 58 59 58 58 59 62 66 69 70 68 67 68 66 63 66 67 65 65 63 62 63 61 60 57 56 59